Watertown, NY

10:11 PM EDT on April 24, 2018 (GMT -0400)
Watertown International

Weather History for KART - February, 2014

Change the Weather History Date:

Monday, February 17, 2014

  Actual Average Record
Temperature  
Mean Temperature -5 °F 21 °F  
Max Temperature 19 °F 32 °F 54 °F (2006)
Min Temperature -29 °F 11 °F -34 °F (1973)
Degree Days  
Heating Degree Days 70 44  
Month to date heating degree days 880 768  
Since 1 July heating degree days 5214 4979  
Cooling Degree Days 0 0  
Month to date cooling degree days 0 0  
Year to date cooling degree days 0 0  
Moisture  
Dew Point -16 °F    
Average Humidity 56    
Maximum Humidity 78    
Minimum Humidity 33    
Precipitation  
Precipitation 0.00 in 0.08 in 0.71 in (1952)
Month to date precipitation 0.69 1.33  
Year to date precipitation 4.38 3.99  
Sea Level Pressure  
Sea Level Pressure 30.39 in    
Wind  
Wind Speed 2 mph (East)    
Max Wind Speed 12 mph    
Max Gust Speed 13 mph    
Visibility 10 miles    
Events      
T = Trace of Precipitation, MM = Missing Value Source: NWS Daily Summary

Daily Weather History Graph

Daily Weather History Graph

Search for Another Location

Airport or City:

Astronomy

Feb. 17, 2014 Rise Set
Actual Time 7:00 AM EST 5:36 PM EST
Civil Twilight 6:30 AM EST 6:06 PM EST
Nautical Twilight 5:57 AM EST 6:39 PM EST
Astronomical Twilight 5:23 AM EST 7:13 PM EST
Moon 8:36 PM EST (2/17) 7:53 AM EST (2/17)
Length of Visible Light 11h 35m
Length of Day
10h 36m
Waning Gibbous, 93% of the Moon is Illuminated
Feb 17
Waning Gibbous
Feb 22
Last Quarter
Mar 1
New
Mar 8
First Quarter
Mar 16
Full

Hourly Weather History & Observations

Time (EST) Temp. Windchill Dew Point Humidity Pressure Visibility Wind Dir Wind Speed Gust Speed Precip Events Conditions
12:56 AM -16.1 °F - -22.0 °F 74% 30.31 in 10.0 mi Calm Calm - N/A   Clear
1:56 AM -20.9 °F - -31.0 °F 60% 30.33 in 10.0 mi Calm Calm - N/A   Clear
2:56 AM -22.0 °F - -29.9 °F 67% 30.35 in 10.0 mi Calm Calm - N/A   Clear
3:56 AM -23.1 °F - -29.9 °F 70% 30.38 in 10.0 mi Calm Calm - N/A   Clear
4:56 AM -26.0 °F - -34.1 °F 66% 30.40 in 10.0 mi Calm Calm - N/A   Clear
5:56 AM -26.0 °F - -34.1 °F 66% 30.45 in 10.0 mi Calm Calm - N/A   Clear
6:56 AM -25.1 °F -36.5 °F -32.1 °F 70% 30.48 in 10.0 mi East 3.5 mph - N/A   Clear
7:56 AM -16.1 °F -28.6 °F -22.0 °F 74% 30.49 in 10.0 mi East 4.6 mph - N/A   Clear
8:56 AM -4.0 °F - -9.9 °F 76% 30.51 in 10.0 mi Calm Calm - N/A   Clear
10:56 AM 9.0 °F 0.6 °F -8.0 °F 46% 30.51 in 10.0 mi East 4.6 mph - N/A   Clear
11:56 AM 14.0 °F - -8.0 °F 37% 30.51 in 10.0 mi Calm Calm - N/A   Clear
12:56 PM 16.0 °F - -9.0 °F 32% 30.48 in 10.0 mi Calm Calm - N/A   Clear
1:56 PM 18.0 °F - -8.0 °F 31% 30.47 in 10.0 mi Calm Calm - 0.00 in   Clear
2:56 PM 16.0 °F 10.4 °F -6.0 °F 38% 30.45 in 10.0 mi West 3.5 mph - N/A   Clear
3:56 PM 16.0 °F - -8.0 °F 34% 30.42 in 10.0 mi Calm Calm - N/A   Clear
4:56 PM 12.0 °F - -8.0 °F 41% 30.40 in 10.0 mi Calm Calm - N/A   Clear
5:56 PM 7.0 °F 0.1 °F -9.0 °F 48% 30.40 in 10.0 mi SW 3.5 mph - N/A   Clear
6:56 PM -5.1 °F - -14.1 °F 65% 30.38 in 10.0 mi Calm Calm - N/A   Clear
7:56 PM -5.1 °F -19.1 °F -13.0 °F 69% 30.32 in 10.0 mi ENE 6.9 mph - N/A   Clear
8:56 PM 5.0 °F -8.1 °F -9.9 °F 50% 30.25 in 10.0 mi East 8.1 mph - N/A   Clear
9:56 PM 1.9 °F -10.6 °F -11.9 °F 52% 30.24 in 10.0 mi ENE 6.9 mph - N/A   Clear
10:56 PM 6.1 °F -5.6 °F -8.0 °F 53% 30.20 in 10.0 mi East 6.9 mph - N/A   Clear
11:56 PM 9.0 °F -3.2 °F -5.1 °F 53% 30.14 in 10.0 mi ENE 8.1 mph - N/A   Clear